Location: Chassagnes
(44.4047°N, 4.1657°E)
Time: 13:05:04
(UTC+00:00)

Cosmos 1486 Rocket - Pass Details

Date: 27 October 2020
Orbit: 758 x 784 km, 74.1° (Epoch: 23 November)

Event Time Altitude Azimuth Distance (km) Brightness Sun altitude
Rises 18:17:35 0° 338° (NNW) 3,283 7.6 -18.1°
Reaches altitude 10° 18:19:59 10° 338° (NNW) 2,350 6.8 -18.5°
Maximum altitude 18:25:20 86° 252° (WSW) 791 4.0 -19.5°
Drops below altitude 10° 18:30:38 10° 163° (SSE) 2,325 6.3 -20.4°
Enters shadow 18:32:48 - 163° (SSE) 3,166 7.0 -20.8°
